Find Starlink 32090

NORAD ID: 59691 Int'l Des: 2024-086 Owner: SPXS Country: US Constellation: starlink operational
LEOCIRCULAR

当前视图

正在加载3D地球...

About Starlink 32090

Starlink 32090 (NORAD 59691) is a starlink constellation satellite (v2 mini) launched May 8, 2024 by SPXS of US. It operates in LEO, CIRCULAR orbit with a mass of 730.00 kg.

即将过境

Passes for default location (London). Set your location on the main map for personalized predictions.

高度历史

Loading altitude history...

两行轨道根数

1 59691U 24086K 26263.84436994 .00000286 00000-0 19920-4 0 9997
2 59691 43.0059 41.6397 0001608 279.0059 81.0611 15.27578144133918
Epoch: Sep 20, 2026 • Age: 13 hours

当前状态

高度 487.2 km
远地点 / 近地点 N/A
速度 7.63 km/s
星下点 42.75°N, 0.63°W
发射日期 May 8, 2024
运行时间 2.3 years
类型 internet

技术详情

分类 Payload
质量 730.00 kg
干质量 700.00 kg
长度 0.30 m
跨度 29.00 m
形状 ? Box + pan
制造商 SPXS
平台类型 Starlink V2M
阶段状态 In Orbit
所有者/国家 SPXS/US

Most Searched